User: anonymous   Login
Location: Unspecified
(0.0000°N, 0.0000°E)
Time: 06:38:37
(UTC+00:00)
Language:

NUDT-PHONESAT - Orbit

View from above orbital plane
View from above orbital plane
View from above satellite
View from above satellite

Ground track
Ground track

The orbit data is extracted from the following two-line orbital elements,

1 40900U 15049B   19082.76137900  .00001750  00000-0  78631-4 0  9997
2 40900  97.4401  92.9621 0014693 125.1330 320.1368 15.22404739194438
Epoch (UTC): 23 March 2019 18:16:23
Eccentricity: 0.0014693
inclination: 97.4401°
perigee height: 488 km
apogee height: 509 km
right ascension of ascending node: 92.9621°
argument of perigee: 125.1330°
revolutions per day: 15.22404739
mean anomaly at epoch: 320.1368°
orbit number at epoch: 19443

The dashed part of the orbit path shows where the satellite is in the earth's shadow,  

DLR